Orbital Elements at Epoch 2459000.5 (2020-May-31.0) TDB
Reference: JPL 13 (heliocentric ecliptic J2000)
Element | Value | Uncertainty (1-sigma) | Units |
e | .1334721271480834 | 6.4323e-08 | |
a | 2.280755123639712 | 9.1127e-09 | au |
q | 1.97633788578363 | 1.4346e-07 | au |
i | 2.089766874760572 | 4.6571e-06 | deg |
node | 120.8486686620003 | 0.00015133 | deg |
peri | 51.34259341796565 | 0.0001518 | deg |
M | 140.4683101965382 | 1.4002e-05 | deg |
tp | 2458509.600858226983 (2019-Jan-26.10085823) | 4.7359e-05 | TDB |
period | 1258.103630569919 3.44 | 7.54e-06 2.064e-08 | d yr |
n | .286144949630994 | 1.7149e-09 | deg/d |
Q | 2.585172361495795 | 1.0329e-08 | au |
|
| | Orbit Determination Parameters
Additional Information
|